Time,TemperatureF,DewpointF,PressureIn,WindDirection,WindDirectionDegrees,WindSpeedMPH,WindSpeedGustMPH,Humidity,HourlyPrecipIn,Conditions,Clouds,dailyrainin,SoftwareType,DateUTC
2013-09-15 00:05:00,50.6,44.3,29.87,WNW,303,5.0,6.0,79,0.00,,,0.00,Wunderground v.1.15,2013-09-15 08:05:00,
2013-09-15 00:11:00,50.9,44.3,29.87,WNW,299,5.0,6.0,78,0.00,,,0.00,Wunderground v.1.15,2013-09-15 08:11:00,
2013-09-15 00:17:00,51.5,44.5,29.87,NW,322,6.0,9.0,77,0.00,,,0.00,Wunderground v.1.15,2013-09-15 08:17:00,
2013-09-15 00:23:00,51.8,44.5,29.87,NW,326,6.0,8.0,76,0.00,,,0.00,Wunderground v.1.15,2013-09-15 08:23:00,
2013-09-15 00:29:00,51.9,44.6,29.87,NW,324,6.0,6.0,76,0.00,,,0.00,Wunderground v.1.15,2013-09-15 08:29:00,
2013-09-15 00:35:00,51.9,44.6,29.87,WNW,299,6.0,7.0,76,0.00,,,0.00,Wunderground v.1.15,2013-09-15 08:35:00,
2013-09-15 00:40:00,51.9,44.6,29.87,NW,312,6.0,11.0,76,0.00,,,0.00,Wunderground v.1.15,2013-09-15 08:40:00,
2013-09-15 00:46:00,52.1,44.8,29.87,NW,305,7.0,11.0,76,0.00,,,0.00,Wunderground v.1.15,2013-09-15 08:46:00,
2013-09-15 00:52:00,52.0,44.7,29.87,NNW,342,7.0,8.0,76,0.00,,,0.00,Wunderground v.1.15,2013-09-15 08:52:00,
2013-09-15 00:58:00,51.8,44.5,29.87,NNW,331,6.0,8.0,76,0.00,,,0.00,Wunderground v.1.15,2013-09-15 08:58:00,
2013-09-15 01:04:00,51.6,44.6,29.87,NW,311,4.0,11.0,77,0.00,,,0.00,Wunderground v.1.15,2013-09-15 09:04:00,
2013-09-15 01:09:00,51.4,44.4,29.87,NNW,335,3.0,11.0,77,0.00,,,0.00,Wunderground v.1.15,2013-09-15 09:09:00,
2013-09-15 01:15:00,51.1,44.5,29.87,NNW,343,1.0,11.0,78,0.00,,,0.00,Wunderground v.1.15,2013-09-15 09:15:00,
2013-09-15 01:20:00,50.8,44.5,29.87,NNW,336,1.0,11.0,79,0.00,,,0.00,Wunderground v.1.15,2013-09-15 09:20:00,
2013-09-15 01:26:00,50.8,44.5,29.86,North,350,1.0,11.0,79,0.00,,,0.00,Wunderground v.1.15,2013-09-15 09:26:00,
2013-09-15 01:32:00,50.9,44.6,29.87,NNW,331,2.0,11.0,79,0.00,,,0.00,Wunderground v.1.15,2013-09-15 09:32:00,
2013-09-15 01:38:00,51.0,44.7,29.86,NNW,330,2.0,11.0,79,0.00,,,0.00,Wunderground v.1.15,2013-09-15 09:38:00,
2013-09-15 01:44:00,51.2,44.9,29.86,North,359,2.0,11.0,79,0.00,,,0.00,Wunderground v.1.15,2013-09-15 09:44:00,
2013-09-15 01:50:00,51.5,45.2,29.86,North,11,1.0,11.0,79,0.00,,,0.00,Wunderground v.1.15,2013-09-15 09:50:00,
2013-09-15 01:56:00,50.6,45.3,29.87,NE,37,1.0,11.0,82,0.00,,,0.00,Wunderground v.1.15,2013-09-15 09:56:00,
2013-09-15 02:01:00,49.6,45.3,29.87,NNE,21,1.0,5.0,85,0.00,,,0.00,Wunderground v.1.15,2013-09-15 10:01:00,
2013-09-15 02:07:00,48.6,44.9,29.87,NNW,342,0.0,5.0,87,0.00,,,0.00,Wunderground v.1.15,2013-09-15 10:07:00,
2013-09-15 02:13:00,48.3,44.9,29.86,NNE,12,0.0,5.0,88,0.00,,,0.00,Wunderground v.1.15,2013-09-15 10:13:00,
2013-09-15 02:18:00,48.5,45.4,29.87,NNE,25,0.0,5.0,89,0.00,,,0.00,Wunderground v.1.15,2013-09-15 10:18:00,
2013-09-15 02:24:00,48.6,45.2,29.87,NNE,21,0.0,5.0,88,0.00,,,0.00,Wunderground v.1.15,2013-09-15 10:24:00,
2013-09-15 02:30:00,48.7,45.6,29.87,NNE,21,0.0,5.0,89,0.00,,,0.00,Wunderground v.1.15,2013-09-15 10:30:00,
2013-09-15 02:36:00,48.5,45.4,29.87,NNW,347,0.0,5.0,89,0.00,,,0.00,Wunderground v.1.15,2013-09-15 10:36:00,
2013-09-15 02:41:00,48.6,45.2,29.87,NW,322,0.0,5.0,88,0.00,,,0.00,Wunderground v.1.15,2013-09-15 10:41:00,
2013-09-15 02:47:00,48.8,45.7,29.87,NNW,339,0.0,5.0,89,0.00,,,0.00,Wunderground v.1.15,2013-09-15 10:47:00,
2013-09-15 02:53:00,48.8,45.7,29.87,NNW,339,0.0,5.0,89,0.00,,,0.00,Wunderground v.1.15,2013-09-15 10:53:00,
2013-09-15 02:59:00,48.7,45.6,29.86,NNW,339,0.0,5.0,89,0.00,,,0.00,Wunderground v.1.15,2013-09-15 10:59:00,
2013-09-15 03:04:00,48.6,45.5,29.86,NNW,332,0.0,2.0,89,0.00,,,0.00,Wunderground v.1.15,2013-09-15 11:04:00,
2013-09-15 03:09:00,48.6,45.5,29.86,NNW,332,0.0,2.0,89,0.00,,,0.00,Wunderground v.1.15,2013-09-15 11:09:00,
2013-09-15 03:15:00,49.0,45.9,29.86,NNW,332,0.0,1.0,89,0.00,,,0.00,Wunderground v.1.15,2013-09-15 11:15:00,
2013-09-15 03:20:00,49.4,46.0,29.86,NNW,332,0.0,1.0,88,0.00,,,0.00,Wunderground v.1.15,2013-09-15 11:20:00,
2013-09-15 03:26:00,49.6,45.9,29.86,North,354,0.0,1.0,87,0.00,,,0.00,Wunderground v.1.15,2013-09-15 11:26:00,
2013-09-15 03:32:00,49.7,46.0,29.86,North,354,0.0,1.0,87,0.00,,,0.00,Wunderground v.1.15,2013-09-15 11:32:00,
2013-09-15 03:38:00,49.7,45.7,29.86,NNW,341,0.0,1.0,86,0.00,,,0.00,Wunderground v.1.15,2013-09-15 11:38:00,
2013-09-15 03:44:00,49.8,45.5,29.86,NW,323,1.0,2.0,85,0.00,,,0.00,Wunderground v.1.15,2013-09-15 11:44:00,
2013-09-15 03:49:00,50.6,45.9,29.85,NNW,333,2.0,4.0,84,0.00,,,0.00,Wunderground v.1.15,2013-09-15 11:49:00,
2013-09-15 03:55:00,51.2,45.9,29.86,NNW,334,3.0,4.0,82,0.00,,,0.00,Wunderground v.1.15,2013-09-15 11:55:00,
2013-09-15 04:00:00,51.1,45.5,29.86,NW,304,3.0,3.0,81,0.00,,,0.00,Wunderground v.1.15,2013-09-15 12:00:00,
2013-09-15 04:06:00,50.7,45.4,29.85,NW,312,2.0,6.0,82,0.00,,,0.00,Wunderground v.1.15,2013-09-15 12:06:00,
2013-09-15 04:12:00,50.4,45.1,29.85,NNW,329,1.0,6.0,82,0.00,,,0.00,Wunderground v.1.15,2013-09-15 12:12:00,
2013-09-15 04:18:00,50.2,45.2,29.85,NW,320,2.0,6.0,83,0.00,,,0.00,Wunderground v.1.15,2013-09-15 12:18:00,
2013-09-15 04:24:00,50.3,45.0,29.85,WNW,303,1.0,6.0,82,0.00,,,0.00,Wunderground v.1.15,2013-09-15 12:24:00,
2013-09-15 04:29:00,50.4,44.8,29.85,NW,324,2.0,6.0,81,0.00,,,0.00,Wunderground v.1.15,2013-09-15 12:29:00,
2013-09-15 04:35:00,50.0,45.0,29.85,NNW,337,2.0,6.0,83,0.00,,,0.00,Wunderground v.1.15,2013-09-15 12:35:00,
2013-09-15 04:41:00,49.8,45.2,29.85,NW,312,0.0,6.0,84,0.00,,,0.00,Wunderground v.1.15,2013-09-15 12:41:00,
2013-09-15 04:47:00,49.4,44.8,29.85,NW,307,0.0,6.0,84,0.00,,,0.00,Wunderground v.1.15,2013-09-15 12:47:00,
2013-09-15 04:53:00,48.8,44.2,29.84,WNW,297,2.0,6.0,84,0.00,,,0.00,Wunderground v.1.15,2013-09-15 12:53:00,
2013-09-15 04:59:00,48.8,44.2,29.84,NW,310,4.0,7.0,84,0.00,,,0.00,Wunderground v.1.15,2013-09-15 12:59:00,
2013-09-15 05:04:00,48.9,44.3,29.84,NNW,329,3.0,7.0,84,0.00,,,0.00,Wunderground v.1.15,2013-09-15 13:04:00,
2013-09-15 05:10:00,49.1,44.5,29.84,NW,326,1.0,7.0,84,0.00,,,0.00,Wunderground v.1.15,2013-09-15 13:10:00,
2013-09-15 05:16:00,49.1,44.2,29.84,WNW,294,2.0,7.0,83,0.00,,,0.00,Wunderground v.1.15,2013-09-15 13:16:00,
2013-09-15 05:22:00,49.2,44.3,29.84,WNW,297,6.0,10.0,83,0.00,,,0.00,Wunderground v.1.15,2013-09-15 13:22:00,
2013-09-15 05:28:00,49.3,44.4,29.84,NW,305,9.0,10.0,83,0.00,,,0.00,Wunderground v.1.15,2013-09-15 13:28:00,
2013-09-15 05:34:00,48.9,44.0,29.84,WNW,292,7.0,8.0,83,0.00,,,0.00,Wunderground v.1.15,2013-09-15 13:34:00,
2013-09-15 05:40:00,49.1,44.2,29.84,WNW,301,7.0,9.0,83,0.00,,,0.00,Wunderground v.1.15,2013-09-15 13:40:00,
2013-09-15 05:46:00,49.6,44.0,29.84,NW,311,8.0,9.0,81,0.00,,,0.00,Wunderground v.1.15,2013-09-15 13:46:00,
2013-09-15 05:52:00,49.9,43.6,29.84,NW,310,8.0,10.0,79,0.00,,,0.00,Wunderground v.1.15,2013-09-15 13:52:00,
2013-09-15 05:58:00,49.6,43.4,29.84,NW,316,8.0,10.0,79,0.00,,,0.00,Wunderground v.1.15,2013-09-15 13:58:00,
2013-09-15 06:04:00,49.8,43.5,29.84,NW,322,7.0,11.0,79,0.00,,,0.00,Wunderground v.1.15,2013-09-15 14:04:00,
2013-09-15 06:09:00,50.0,43.4,29.84,NW,322,7.0,11.0,78,0.00,,,0.00,Wunderground v.1.15,2013-09-15 14:09:00,
2013-09-15 06:15:00,50.0,43.1,29.84,NW,321,6.0,11.0,77,0.00,,,0.00,Wunderground v.1.15,2013-09-15 14:15:00,
2013-09-15 06:20:00,49.9,43.0,29.84,NW,322,4.0,4.0,77,0.00,,,0.00,Wunderground v.1.15,2013-09-15 14:20:00,
2013-09-15 06:26:00,49.6,42.7,29.84,NW,318,2.0,11.0,77,0.00,,,0.00,Wunderground v.1.15,2013-09-15 14:26:00,
2013-09-15 06:33:00,49.0,42.4,29.84,NW,304,1.0,11.0,78,0.00,,,0.00,Wunderground v.1.15,2013-09-15 14:33:00,
2013-09-15 06:39:00,48.3,42.1,29.84,NW,318,3.0,11.0,79,0.00,,,0.00,Wunderground v.1.15,2013-09-15 14:39:00,
2013-09-15 06:44:00,48.3,42.4,29.85,NW,322,2.0,11.0,80,0.00,,,0.00,Wunderground v.1.15,2013-09-15 14:44:00,
2013-09-15 06:49:00,48.5,42.9,29.84,NW,322,1.0,11.0,81,0.00,,,0.00,Wunderground v.1.15,2013-09-15 14:49:00,
2013-09-15 06:55:00,48.5,42.9,29.84,NW,321,1.0,11.0,81,0.00,,,0.00,Wunderground v.1.15,2013-09-15 14:55:00,
2013-09-15 07:00:00,48.6,43.4,29.84,NNW,327,0.0,2.0,82,0.00,,,0.00,Wunderground v.1.15,2013-09-15 15:00:00,
2013-09-15 07:06:00,48.6,43.4,29.84,NNW,330,0.0,2.0,82,0.00,,,0.00,Wunderground v.1.15,2013-09-15 15:06:00,
2013-09-15 07:12:00,48.8,43.2,29.84,NNW,332,0.0,2.0,81,0.00,,,0.00,Wunderground v.1.15,2013-09-15 15:12:00,
2013-09-15 07:18:00,48.9,42.7,29.84,NNW,344,1.0,2.0,79,0.00,,,0.00,Wunderground v.1.15,2013-09-15 15:18:00,
2013-09-15 07:23:00,49.0,42.8,29.84,NNW,332,1.0,3.0,79,0.00,,,0.00,Wunderground v.1.15,2013-09-15 15:23:00,
2013-09-15 07:29:00,49.7,42.4,29.84,North,354,3.0,8.0,76,0.00,,,0.00,Wunderground v.1.15,2013-09-15 15:29:00,
2013-09-15 07:34:00,50.0,42.7,29.84,NNW,337,4.0,6.0,76,0.00,,,0.00,Wunderground v.1.15,2013-09-15 15:34:00,
2013-09-15 07:39:00,49.8,42.5,29.84,NNW,341,4.0,6.0,76,0.00,,,0.00,Wunderground v.1.15,2013-09-15 15:39:00,
2013-09-15 07:45:00,49.5,42.2,29.84,NNW,332,4.0,5.0,76,0.00,,,0.00,Wunderground v.1.15,2013-09-15 15:45:00,
2013-09-15 07:51:00,49.6,42.3,29.84,North,354,5.0,5.0,76,0.00,,,0.00,Wunderground v.1.15,2013-09-15 15:51:00,
2013-09-15 07:57:00,49.9,42.3,29.84,NNW,346,5.0,7.0,75,0.00,,,0.00,Wunderground v.1.15,2013-09-15 15:57:00,
2013-09-15 08:03:00,50.0,42.0,29.83,NNW,340,5.0,11.0,74,0.00,,,0.00,Wunderground v.1.15,2013-09-15 16:03:00,
2013-09-15 08:08:00,50.2,41.9,29.83,NNW,332,4.0,11.0,73,0.00,,,0.00,Wunderground v.1.15,2013-09-15 16:08:00,
2013-09-15 08:14:00,50.3,42.0,29.83,North,4,3.0,11.0,73,0.00,,,0.00,Wunderground v.1.15,2013-09-15 16:14:00,
2013-09-15 08:20:00,50.3,41.6,29.83,NNW,343,2.0,2.0,72,0.00,,,0.00,Wunderground v.1.15,2013-09-15 16:20:00,
2013-09-15 08:26:00,50.3,41.6,29.83,NW,322,2.0,11.0,72,0.00,,,0.00,Wunderground v.1.15,2013-09-15 16:26:00,
2013-09-15 08:31:00,50.5,41.4,29.83,NW,309,3.0,11.0,71,0.00,,,0.00,Wunderground v.1.15,2013-09-15 16:31:00,
2013-09-15 08:37:00,51.1,41.3,29.83,NNW,330,8.0,12.0,69,0.00,,,0.00,Wunderground v.1.15,2013-09-15 16:37:00,
2013-09-15 08:42:00,51.4,41.6,29.83,NW,324,9.0,11.0,69,0.00,,,0.00,Wunderground v.1.15,2013-09-15 16:42:00,
2013-09-15 08:47:00,51.6,42.9,29.83,ENE,70,6.0,11.0,72,0.00,,,0.00,Wunderground v.1.15,2013-09-15 16:47:00,
2013-09-15 08:53:00,50.9,44.3,29.83,NNE,28,2.0,11.0,78,0.00,,,0.00,Wunderground v.1.15,2013-09-15 16:53:00,
2013-09-15 08:58:00,50.3,44.4,29.84,NE,52,1.0,11.0,80,0.00,,,0.00,Wunderground v.1.15,2013-09-15 16:58:00,
2013-09-15 09:04:00,50.0,44.7,29.84,East,81,1.0,5.0,82,0.00,,,0.00,Wunderground v.1.15,2013-09-15 17:04:00,
2013-09-15 09:10:00,50.0,45.4,29.84,ENE,73,0.0,5.0,84,0.00,,,0.00,Wunderground v.1.15,2013-09-15 17:10:00,
2013-09-15 09:15:00,50.1,45.5,29.84,ENE,60,0.0,5.0,84,0.00,,,0.00,Wunderground v.1.15,2013-09-15 17:15:00,
2013-09-15 09:20:00,50.4,44.1,29.84,NNE,14,1.0,5.0,79,0.00,,,0.00,Wunderground v.1.15,2013-09-15 17:20:00,
2013-09-15 09:26:00,50.9,44.3,29.84,NE,50,1.0,5.0,78,0.00,,,0.00,Wunderground v.1.15,2013-09-15 17:26:00,
2013-09-15 09:32:00,51.2,44.6,29.84,NE,38,1.0,5.0,78,0.00,,,0.00,Wunderground v.1.15,2013-09-15 17:32:00,
2013-09-15 09:38:00,51.9,45.3,29.84,NE,38,1.0,5.0,78,0.00,,,0.00,Wunderground v.1.15,2013-09-15 17:38:00,
2013-09-15 09:43:00,52.4,46.1,29.84,NE,50,1.0,5.0,79,0.00,,,0.00,Wunderground v.1.15,2013-09-15 17:43:00,
2013-09-15 09:49:00,52.6,45.2,29.84,NE,41,1.0,5.0,76,0.00,,,0.00,Wunderground v.1.15,2013-09-15 17:49:00,
2013-09-15 09:55:00,52.7,45.3,29.84,ENE,72,2.0,5.0,76,0.00,,,0.00,Wunderground v.1.15,2013-09-15 17:55:00,
2013-09-15 10:00:00,52.4,45.7,29.84,ENE,73,2.0,6.0,78,0.00,,,0.00,Wunderground v.1.15,2013-09-15 18:00:00,
2013-09-15 10:06:00,52.7,46.0,29.84,NE,55,2.0,6.0,78,0.00,,,0.00,Wunderground v.1.15,2013-09-15 18:06:00,
2013-09-15 10:11:00,52.8,45.8,29.84,ENE,73,2.0,6.0,77,0.00,,,0.00,Wunderground v.1.15,2013-09-15 18:11:00,
2013-09-15 10:17:00,52.7,46.0,29.84,ENE,69,2.0,6.0,78,0.00,,,0.00,Wunderground v.1.15,2013-09-15 18:17:00,
2013-09-15 10:23:00,53.0,47.0,29.84,ESE,104,2.0,6.0,80,0.00,,,0.00,Wunderground v.1.15,2013-09-15 18:23:00,
2013-09-15 10:29:00,53.0,48.0,29.84,SSE,162,1.0,6.0,83,0.00,,,0.00,Wunderground v.1.15,2013-09-15 18:29:00,
2013-09-15 10:35:00,52.4,47.1,29.84,SSE,154,0.0,6.0,82,0.00,,,0.00,Wunderground v.1.15,2013-09-15 18:35:00,
2013-09-15 10:41:00,52.2,47.5,29.84,ESE,103,1.0,6.0,84,0.00,,,0.00,Wunderground v.1.15,2013-09-15 18:41:00,
2013-09-15 10:46:00,52.1,48.0,29.84,SE,135,2.0,6.0,86,0.00,,,0.00,Wunderground v.1.15,2013-09-15 18:46:00,
2013-09-15 10:52:00,52.2,47.2,29.84,SSE,154,1.0,6.0,83,0.00,,,0.00,Wunderground v.1.15,2013-09-15 18:52:00,
2013-09-15 10:57:00,52.5,47.2,29.84,East,84,1.0,6.0,82,0.00,,,0.00,Wunderground v.1.15,2013-09-15 18:57:00,
2013-09-15 11:03:00,53.0,47.0,29.84,ESE,106,1.0,5.0,80,0.00,,,0.00,Wunderground v.1.15,2013-09-15 19:03:00,
2013-09-15 11:08:00,53.0,46.7,29.84,SE,146,1.0,5.0,79,0.00,,,0.00,Wunderground v.1.15,2013-09-15 19:08:00,
2013-09-15 11:14:00,53.0,46.7,29.84,East,95,1.0,4.0,79,0.00,,,0.00,Wunderground v.1.15,2013-09-15 19:14:00,
2013-09-15 11:18:00,53.2,46.9,29.84,SE,131,1.0,4.0,79,0.00,,,0.00,Wunderground v.1.15,2013-09-15 19:18:00,
2013-09-15 11:24:00,53.6,46.2,29.84,ESE,114,1.0,4.0,76,0.00,,,0.00,Wunderground v.1.15,2013-09-15 19:24:00,
2013-09-15 11:30:00,54.0,46.3,29.84,SSE,156,1.0,4.0,75,0.00,,,0.00,Wunderground v.1.15,2013-09-15 19:30:00,
2013-09-15 11:36:00,54.0,46.3,29.84,SSE,147,1.0,4.0,75,0.00,,,0.00,Wunderground v.1.15,2013-09-15 19:36:00,
2013-09-15 11:42:00,54.3,46.5,29.84,ENE,76,1.0,4.0,75,0.00,,,0.00,Wunderground v.1.15,2013-09-15 19:42:00,
2013-09-15 11:48:00,53.8,45.0,29.84,ENE,64,3.0,4.0,72,0.00,,,0.00,Wunderground v.1.15,2013-09-15 19:48:00,
2013-09-15 11:54:00,53.8,46.8,29.84,East,81,2.0,5.0,77,0.00,,,0.00,Wunderground v.1.15,2013-09-15 19:54:00,
2013-09-15 12:00:00,54.1,46.7,29.84,ENE,68,1.0,6.0,76,0.00,,,0.00,Wunderground v.1.15,2013-09-15 20:00:00,
2013-09-15 12:06:00,53.9,46.9,29.84,East,101,1.0,6.0,77,0.00,,,0.00,Wunderground v.1.15,2013-09-15 20:06:00,
2013-09-15 12:11:00,53.9,46.9,29.84,NE,49,2.0,4.0,77,0.00,,,0.00,Wunderground v.1.15,2013-09-15 20:11:00,
2013-09-15 12:17:00,53.6,46.9,29.84,SSE,149,2.0,6.0,78,0.00,,,0.00,Wunderground v.1.15,2013-09-15 20:17:00,
2013-09-15 12:23:00,53.9,47.5,29.84,ENE,66,2.0,6.0,79,0.00,,,0.00,Wunderground v.1.15,2013-09-15 20:23:00,
2013-09-15 12:29:00,54.4,46.3,29.84,SE,135,2.0,6.0,74,0.00,,,0.00,Wunderground v.1.15,2013-09-15 20:29:00,
2013-09-15 12:35:00,54.3,45.8,29.83,East,89,2.0,6.0,73,0.00,,,0.00,Wunderground v.1.15,2013-09-15 20:35:00,
2013-09-15 12:41:00,54.3,45.8,29.83,ESE,121,2.0,6.0,73,0.00,,,0.00,Wunderground v.1.15,2013-09-15 20:41:00,
2013-09-15 12:46:00,54.5,45.3,29.83,SSE,149,2.0,6.0,71,0.00,,,0.00,Wunderground v.1.15,2013-09-15 20:46:00,
2013-09-15 12:52:00,54.7,45.8,29.83,ESE,112,2.0,6.0,72,0.00,,,0.00,Wunderground v.1.15,2013-09-15 20:52:00,
2013-09-15 12:58:00,55.0,45.8,29.83,ESE,103,1.0,6.0,71,0.00,,,0.00,Wunderground v.1.15,2013-09-15 20:58:00,
2013-09-15 13:04:00,55.5,46.2,29.83,SSE,152,0.0,6.0,71,0.00,,,0.00,Wunderground v.1.15,2013-09-15 21:04:00,
2013-09-15 13:09:00,56.1,45.7,29.83,ENE,68,1.0,6.0,68,0.00,,,0.00,Wunderground v.1.15,2013-09-15 21:09:00,
2013-09-15 13:15:00,56.1,44.9,29.82,South,172,1.0,6.0,66,0.00,,,0.00,Wunderground v.1.15,2013-09-15 21:15:00,
2013-09-15 13:21:00,55.5,45.1,29.82,East,82,2.0,3.0,68,0.00,,,0.00,Wunderground v.1.15,2013-09-15 21:21:00,
2013-09-15 13:27:00,55.6,44.0,29.82,East,86,2.0,6.0,65,0.00,,,0.00,Wunderground v.1.15,2013-09-15 21:27:00,
2013-09-15 13:33:00,56.0,44.8,29.82,SE,140,1.0,6.0,66,0.00,,,0.00,Wunderground v.1.15,2013-09-15 21:33:00,
2013-09-15 13:38:00,56.7,44.7,29.82,South,183,1.0,6.0,64,0.00,,,0.00,Wunderground v.1.15,2013-09-15 21:38:00,
2013-09-15 13:44:00,56.6,44.6,29.82,SSE,167,1.0,6.0,64,0.00,,,0.00,Wunderground v.1.15,2013-09-15 21:44:00,
2013-09-15 13:49:00,56.7,45.1,29.82,ESE,120,1.0,6.0,65,0.00,,,0.00,Wunderground v.1.15,2013-09-15 21:49:00,
2013-09-15 13:54:00,57.1,45.4,29.81,ESE,111,1.0,6.0,65,0.00,,,0.00,Wunderground v.1.15,2013-09-15 21:54:00,
2013-09-15 14:00:00,56.6,44.1,29.81,ENE,62,1.0,4.0,63,0.00,,,0.00,Wunderground v.1.15,2013-09-15 22:00:00,
2013-09-15 14:06:00,56.0,45.2,29.81,SSE,168,1.0,4.0,67,0.00,,,0.00,Wunderground v.1.15,2013-09-15 22:06:00,
2013-09-15 14:12:00,56.8,45.2,29.81,ENE,60,1.0,3.0,65,0.00,,,0.00,Wunderground v.1.15,2013-09-15 22:12:00,
2013-09-15 14:18:00,56.9,44.8,29.81,SE,140,2.0,5.0,64,0.00,,,0.00,Wunderground v.1.15,2013-09-15 22:18:00,
2013-09-15 14:24:00,57.0,44.1,29.81,SE,146,1.0,3.0,62,0.00,,,0.00,Wunderground v.1.15,2013-09-15 22:24:00,
2013-09-15 14:30:00,57.3,44.4,29.81,ESE,116,1.0,1.0,62,0.00,,,0.00,Wunderground v.1.15,2013-09-15 22:30:00,
2013-09-15 14:35:00,57.0,44.9,29.81,SE,130,2.0,5.0,64,0.00,,,0.00,Wunderground v.1.15,2013-09-15 22:35:00,
2013-09-15 14:40:00,57.0,45.3,29.80,ESE,104,2.0,2.0,65,0.00,,,0.00,Wunderground v.1.15,2013-09-15 22:40:00,
2013-09-15 14:46:00,57.2,44.7,29.80,SE,130,2.0,3.0,63,0.00,,,0.00,Wunderground v.1.15,2013-09-15 22:46:00,
2013-09-15 14:51:00,57.3,43.5,29.80,SE,125,1.0,2.0,60,0.00,,,0.00,Wunderground v.1.15,2013-09-15 22:51:00,
2013-09-15 14:57:00,57.2,43.9,29.80,ESE,110,1.0,3.0,61,0.00,,,0.00,Wunderground v.1.15,2013-09-15 22:57:00,
2013-09-15 15:03:00,56.7,43.8,29.80,East,89,1.0,4.0,62,0.00,,,0.00,Wunderground v.1.15,2013-09-15 23:03:00,
2013-09-15 15:09:00,57.1,43.3,29.80,ENE,78,1.0,4.0,60,0.00,,,0.00,Wunderground v.1.15,2013-09-15 23:09:00,
2013-09-15 15:14:00,56.8,42.6,29.80,SE,141,1.0,4.0,59,0.00,,,0.00,Wunderground v.1.15,2013-09-15 23:14:00,
2013-09-15 15:20:00,57.0,44.1,29.80,ESE,102,2.0,2.0,62,0.00,,,0.00,Wunderground v.1.15,2013-09-15 23:20:00,
2013-09-15 15:26:00,57.4,44.5,29.79,SE,143,1.0,4.0,62,0.00,,,0.00,Wunderground v.1.15,2013-09-15 23:26:00,
2013-09-15 15:31:00,57.6,44.7,29.79,NE,56,1.0,4.0,62,0.00,,,0.00,Wunderground v.1.15,2013-09-15 23:31:00,
2013-09-15 15:37:00,57.6,44.2,29.79,ENE,77,2.0,4.0,61,0.00,,,0.00,Wunderground v.1.15,2013-09-15 23:37:00,
2013-09-15 15:43:00,57.4,42.7,29.79,ENE,62,2.0,5.0,58,0.00,,,0.00,Wunderground v.1.15,2013-09-15 23:43:00,
2013-09-15 15:49:00,57.2,43.4,29.79,East,84,2.0,5.0,60,0.00,,,0.00,Wunderground v.1.15,2013-09-15 23:49:00,
2013-09-15 15:55:00,57.1,42.9,29.79,SE,137,2.0,6.0,59,0.00,,,0.00,Wunderground v.1.15,2013-09-15 23:55:00,
2013-09-15 16:00:00,57.2,43.0,29.79,East,83,2.0,2.0,59,0.00,,,0.00,Wunderground v.1.15,2013-09-16 00:00:00,
2013-09-15 16:06:00,56.8,43.1,29.79,ESE,116,2.0,6.0,60,0.00,,,0.00,Wunderground v.1.15,2013-09-16 00:06:00,
2013-09-15 16:12:00,56.5,43.2,29.79,East,86,2.0,6.0,61,0.00,,,0.00,Wunderground v.1.15,2013-09-16 00:12:00,
2013-09-15 16:18:00,56.9,43.6,29.79,East,100,1.0,6.0,61,0.00,,,0.00,Wunderground v.1.15,2013-09-16 00:18:00,
2013-09-15 16:24:00,56.9,43.6,29.78,East,83,1.0,6.0,61,0.00,,,0.00,Wunderground v.1.15,2013-09-16 00:24:00,
2013-09-15 16:29:00,56.9,44.0,29.78,NE,43,2.0,6.0,62,0.00,,,0.00,Wunderground v.1.15,2013-09-16 00:29:00,
2013-09-15 16:35:00,56.9,42.7,29.78,ENE,68,1.0,6.0,59,0.00,,,0.00,Wunderground v.1.15,2013-09-16 00:35:00,
2013-09-15 16:41:00,56.4,43.1,29.78,ENE,66,1.0,6.0,61,0.00,,,0.00,Wunderground v.1.15,2013-09-16 00:41:00,
2013-09-15 16:47:00,57.2,43.4,29.78,ESE,119,0.0,6.0,60,0.00,,,0.00,Wunderground v.1.15,2013-09-16 00:47:00,
2013-09-15 16:52:00,57.6,42.5,29.78,ENE,75,0.0,6.0,57,0.00,,,0.00,Wunderground v.1.15,2013-09-16 00:52:00,
2013-09-15 16:58:00,57.4,43.6,29.78,ENE,74,1.0,6.0,60,0.00,,,0.00,Wunderground v.1.15,2013-09-16 00:58:00,
2013-09-15 17:04:00,57.3,44.0,29.78,East,94,1.0,6.0,61,0.00,,,0.00,Wunderground v.1.15,2013-09-16 01:04:00,
2013-09-15 17:09:00,57.6,42.0,29.78,East,80,1.0,6.0,56,0.00,,,0.00,Wunderground v.1.15,2013-09-16 01:09:00,
2013-09-15 17:15:00,56.9,41.8,29.77,ENE,63,1.0,6.0,57,0.00,,,0.00,Wunderground v.1.15,2013-09-16 01:15:00,
2013-09-15 17:20:00,57.0,41.9,29.77,ESE,104,1.0,1.0,57,0.00,,,0.00,Wunderground v.1.15,2013-09-16 01:20:00,
2013-09-15 17:26:00,57.9,43.2,29.77,ESE,119,0.0,6.0,58,0.00,,,0.00,Wunderground v.1.15,2013-09-16 01:26:00,
2013-09-15 17:32:00,58.2,42.1,29.77,East,93,1.0,6.0,55,0.00,,,0.00,Wunderground v.1.15,2013-09-16 01:32:00,
2013-09-15 17:38:00,57.9,42.8,29.77,ENE,76,1.0,6.0,57,0.00,,,0.00,Wunderground v.1.15,2013-09-16 01:38:00,
2013-09-15 17:44:00,57.3,42.6,29.77,ENE,65,1.0,6.0,58,0.00,,,0.00,Wunderground v.1.15,2013-09-16 01:44:00,
2013-09-15 17:50:00,57.0,43.2,29.77,ENE,74,1.0,1.0,60,0.00,,,0.00,Wunderground v.1.15,2013-09-16 01:50:00,
2013-09-15 17:56:00,57.5,43.3,29.77,SSE,151,0.0,6.0,59,0.00,,,0.00,Wunderground v.1.15,2013-09-16 01:56:00,
2013-09-15 18:01:00,58.2,44.4,29.77,SE,136,0.0,2.0,60,0.00,,,0.00,Wunderground v.1.15,2013-09-16 02:01:00,
2013-09-15 18:07:00,58.9,44.1,29.77,SE,132,0.0,2.0,58,0.00,,,0.00,Wunderground v.1.15,2013-09-16 02:07:00,
2013-09-15 18:13:00,58.8,42.7,29.77,East,85,0.0,2.0,55,0.00,,,0.00,Wunderground v.1.15,2013-09-16 02:13:00,
2013-09-15 18:18:00,58.1,42.0,29.77,East,82,0.0,2.0,55,0.00,,,0.00,Wunderground v.1.15,2013-09-16 02:18:00,
2013-09-15 18:24:00,57.8,44.0,29.77,East,93,0.0,2.0,60,0.00,,,0.00,Wunderground v.1.15,2013-09-16 02:24:00,
2013-09-15 18:29:00,57.9,43.7,29.77,East,96,0.0,2.0,59,0.00,,,0.00,Wunderground v.1.15,2013-09-16 02:29:00,
2013-09-15 18:35:00,57.2,43.9,29.77,East,87,0.0,2.0,61,0.00,,,0.00,Wunderground v.1.15,2013-09-16 02:35:00,
2013-09-15 18:41:00,57.1,44.6,29.77,East,87,0.0,2.0,63,0.00,,,0.00,Wunderground v.1.15,2013-09-16 02:41:00,
2013-09-15 18:47:00,57.4,44.5,29.76,East,87,0.0,2.0,62,0.00,,,0.00,Wunderground v.1.15,2013-09-16 02:47:00,
2013-09-15 18:53:00,57.4,43.2,29.76,East,87,0.0,2.0,59,0.00,,,0.00,Wunderground v.1.15,2013-09-16 02:53:00,
2013-09-15 18:59:00,56.9,41.8,29.76,East,87,0.0,2.0,57,0.00,,,0.00,Wunderground v.1.15,2013-09-16 02:59:00,
2013-09-15 19:04:00,56.5,42.8,29.76,NW,311,0.0,0.0,60,0.00,,,0.00,Wunderground v.1.15,2013-09-16 03:04:00,
2013-09-15 19:10:00,56.2,42.1,29.76,NW,304,0.0,0.0,59,0.00,,,0.00,Wunderground v.1.15,2013-09-16 03:10:00,
2013-09-15 19:15:00,56.3,41.3,29.76,NW,304,0.0,0.0,57,0.00,,,0.00,Wunderground v.1.15,2013-09-16 03:15:00,
2013-09-15 19:21:00,56.0,43.2,29.76,West,272,1.0,5.0,62,0.00,,,0.00,Wunderground v.1.15,2013-09-16 03:21:00,
2013-09-15 19:27:00,55.4,43.8,29.76,WNW,296,2.0,5.0,65,0.00,,,0.00,Wunderground v.1.15,2013-09-16 03:27:00,
2013-09-15 19:32:00,54.8,43.7,29.76,WNW,289,2.0,6.0,66,0.00,,,0.00,Wunderground v.1.15,2013-09-16 03:32:00,
2013-09-15 19:38:00,54.1,43.4,29.75,West,270,3.0,6.0,67,0.00,,,0.00,Wunderground v.1.15,2013-09-16 03:38:00,
2013-09-15 19:43:00,53.5,43.6,29.75,WNW,299,4.0,5.0,69,0.00,,,0.00,Wunderground v.1.15,2013-09-16 03:43:00,
2013-09-15 19:48:00,53.0,43.5,29.75,West,280,5.0,8.0,70,0.00,,,0.00,Wunderground v.1.15,2013-09-16 03:48:00,
2013-09-15 19:54:00,52.7,43.2,29.75,West,276,6.0,6.0,70,0.00,,,0.00,Wunderground v.1.15,2013-09-16 03:54:00,
2013-09-15 19:59:00,52.4,43.3,29.75,NW,305,6.0,9.0,71,0.00,,,0.00,Wunderground v.1.15,2013-09-16 03:59:00,
2013-09-15 20:02:00,52.2,43.1,29.75,West,271,6.0,10.0,71,0.00,,,0.00,Wunderground v.1.15,2013-09-16 04:02:00,
2013-09-15 20:04:00,52.1,43.3,29.75,WNW,299,6.0,10.0,72,0.00,,,0.00,Wunderground v.1.15,2013-09-16 04:04:00,
2013-09-15 20:05:00,52.0,43.3,29.75,WNW,297,6.0,10.0,72,0.00,,,0.00,Wunderground v.1.15,2013-09-16 04:05:00,
2013-09-15 20:06:00,51.9,43.2,29.75,West,274,7.0,10.0,72,0.00,,,0.00,Wunderground v.1.15,2013-09-16 04:06:00,
2013-09-15 20:07:00,51.9,43.2,29.75,WNW,291,7.0,10.0,72,0.00,,,0.00,Wunderground v.1.15,2013-09-16 04:07:00,
2013-09-15 20:08:00,51.8,43.1,29.75,WNW,282,7.0,10.0,72,0.00,,,0.00,Wunderground v.1.15,2013-09-16 04:08:00,
2013-09-15 20:14:00,51.6,43.2,29.75,West,277,9.0,12.0,73,0.00,,,0.00,Wunderground v.1.15,2013-09-16 04:14:00,
2013-09-15 20:20:00,51.2,43.2,29.75,West,271,9.0,9.0,74,0.00,,,0.00,Wunderground v.1.15,2013-09-16 04:20:00,
2013-09-15 20:26:00,50.9,42.9,29.75,WNW,300,9.0,13.0,74,0.00,,,0.00,Wunderground v.1.15,2013-09-16 04:26:00,
2013-09-15 20:32:00,50.8,42.5,29.75,West,269,9.0,11.0,73,0.00,,,0.00,Wunderground v.1.15,2013-09-16 04:32:00,
2013-09-15 20:38:00,50.7,42.4,29.75,WNW,292,9.0,11.0,73,0.00,,,0.00,Wunderground v.1.15,2013-09-16 04:38:00,
2013-09-15 20:44:00,50.4,42.4,29.75,WNW,291,9.0,11.0,74,0.00,,,0.00,Wunderground v.1.15,2013-09-16 04:44:00,
2013-09-15 20:50:00,50.1,42.1,29.75,WNW,289,11.0,11.0,74,0.00,,,0.00,Wunderground v.1.15,2013-09-16 04:50:00,
2013-09-15 20:55:00,49.9,42.3,29.75,West,265,11.0,13.0,75,0.00,,,0.00,Wunderground v.1.15,2013-09-16 04:55:00,
2013-09-15 21:00:00,49.8,41.5,29.75,WNW,292,11.0,15.0,73,0.00,,,0.00,Wunderground v.1.15,2013-09-16 05:00:00,
2013-09-15 21:06:00,49.9,40.9,29.75,NW,304,11.0,15.0,71,0.00,,,0.00,Wunderground v.1.15,2013-09-16 05:06:00,
2013-09-15 21:12:00,50.3,40.5,29.75,WNW,287,11.0,15.0,69,0.00,,,0.00,Wunderground v.1.15,2013-09-16 05:12:00,
2013-09-15 21:18:00,50.4,40.2,29.75,West,280,11.0,15.0,68,0.00,,,0.00,Wunderground v.1.15,2013-09-16 05:18:00,
2013-09-15 21:24:00,50.3,40.1,29.74,WNW,300,11.0,15.0,68,0.00,,,0.00,Wunderground v.1.15,2013-09-16 05:24:00,
2013-09-15 21:30:00,50.4,39.9,29.74,WNW,283,10.0,15.0,67,0.00,,,0.00,Wunderground v.1.15,2013-09-16 05:30:00,
2013-09-15 21:36:00,50.3,39.8,29.74,West,280,10.0,15.0,67,0.00,,,0.00,Wunderground v.1.15,2013-09-16 05:36:00,
2013-09-15 21:41:00,50.5,39.6,29.74,WNW,297,11.0,15.0,66,0.00,,,0.00,Wunderground v.1.15,2013-09-16 05:41:00,
2013-09-15 21:47:00,50.4,39.5,29.74,WNW,293,12.0,15.0,66,0.00,,,0.00,Wunderground v.1.15,2013-09-16 05:47:00,
2013-09-15 21:52:00,50.4,39.5,29.74,WNW,301,12.0,15.0,66,0.00,,,0.00,Wunderground v.1.15,2013-09-16 05:52:00,
2013-09-15 21:58:00,50.6,38.9,29.74,WNW,303,11.0,15.0,64,0.00,,,0.00,Wunderground v.1.15,2013-09-16 05:58:00,
2013-09-15 22:04:00,50.8,38.7,29.74,WNW,291,10.0,15.0,63,0.00,,,0.00,Wunderground v.1.15,2013-09-16 06:04:00,
2013-09-15 22:10:00,51.0,38.8,29.74,West,274,8.0,8.0,63,0.00,,,0.00,Wunderground v.1.15,2013-09-16 06:10:00,
2013-09-15 22:16:00,50.8,38.2,29.74,WNW,282,7.0,15.0,62,0.00,,,0.00,Wunderground v.1.15,2013-09-16 06:16:00,
2013-09-15 22:22:00,51.0,38.4,29.74,WNW,292,6.0,15.0,62,0.00,,,0.00,Wunderground v.1.15,2013-09-16 06:22:00,
2013-09-15 22:28:00,51.1,38.1,29.74,WNW,293,6.0,15.0,61,0.00,,,0.00,Wunderground v.1.15,2013-09-16 06:28:00,
2013-09-15 22:34:00,51.3,38.3,29.74,West,279,5.0,15.0,61,0.00,,,0.00,Wunderground v.1.15,2013-09-16 06:34:00,
2013-09-15 22:40:00,51.2,38.2,29.74,NW,323,3.0,3.0,61,0.00,,,0.00,Wunderground v.1.15,2013-09-16 06:40:00,
2013-09-15 22:46:00,50.6,38.9,29.73,West,272,2.0,15.0,64,0.00,,,0.00,Wunderground v.1.15,2013-09-16 06:46:00,
2013-09-15 22:52:00,50.1,38.8,29.74,NNW,329,2.0,15.0,65,0.00,,,0.00,Wunderground v.1.15,2013-09-16 06:52:00,
2013-09-15 22:57:00,48.9,39.2,29.74,NW,314,1.0,15.0,69,0.00,,,0.00,Wunderground v.1.15,2013-09-16 06:57:00,
2013-09-15 23:03:00,48.2,39.6,29.74,NW,314,1.0,7.0,72,0.00,,,0.00,Wunderground v.1.15,2013-09-16 07:03:00,
2013-09-15 23:09:00,47.9,40.4,29.74,NW,317,0.0,7.0,75,0.00,,,0.00,Wunderground v.1.15,2013-09-16 07:09:00,
2013-09-15 23:15:00,47.5,40.6,29.74,NW,317,0.0,7.0,77,0.00,,,0.00,Wunderground v.1.15,2013-09-16 07:15:00,
2013-09-15 23:21:00,47.2,41.7,29.74,NW,324,0.0,7.0,81,0.00,,,0.00,Wunderground v.1.15,2013-09-16 07:21:00,
2013-09-15 23:27:00,47.0,42.1,29.74,NW,324,1.0,7.0,83,0.00,,,0.00,Wunderground v.1.15,2013-09-16 07:27:00,
2013-09-15 23:33:00,46.7,41.8,29.73,NW,320,1.0,7.0,83,0.00,,,0.00,Wunderground v.1.15,2013-09-16 07:33:00,
2013-09-15 23:38:00,46.7,41.8,29.73,NW,323,1.0,7.0,83,0.00,,,0.00,Wunderground v.1.15,2013-09-16 07:38:00,
2013-09-15 23:44:00,46.5,41.6,29.73,NW,321,1.0,7.0,83,0.00,,,0.00,Wunderground v.1.15,2013-09-16 07:44:00,
2013-09-15 23:50:00,46.7,41.8,29.73,NW,321,0.0,7.0,83,0.00,,,0.00,Wunderground v.1.15,2013-09-16 07:50:00,
2013-09-15 23:55:00,46.7,41.8,29.73,NW,319,1.0,7.0,83,0.00,,,0.00,Wunderground v.1.15,2013-09-16 07:55:00,